Probability
0 0 0 0 0 0 0 0 0 0 0 0 0 0 0 0 0 0 0 0 0 0 0 0 0 0 0 0 0 0 0 0 0 0 0 0 0 0 0 0 0 0 0
0 0 0 0 0 0 0 0 0 0 0 0 0 0 0 0 0 0 0 0 0 0 0 0 0 0 0 0 0 0 0 0 0 0 0 0 0 0 0 0 0 0 0
0 0 0 0 0 0 0 0 0 0 0 0 0 0 0 0 0 0 0 0 0 0 0 0 0 0 0 0 0 0 0 0 0 0 0 0 0 0 0 0 0 0 0
0 0 0 0 0 0 0 0 0 0 0 0 0 0 0 0 0 0 0 0 0 0 0 0 0 0 0 0 0 0 0 0 0 0 0 0 0 0 0 0 0 0 0
0 0 1 2 1 1 0 0 0 0 0 0 0 0 0 0 0 0 0 0 0 0 0 0 0 0 0 0 0 0 0 0 0 0 0 0 0 0 0 0 0 0 0
0 0 2 5 4 2 1 0 0 0 0 0 0 0 0 0 0 0 0 0 0 0 0 0 0 0 0 0 0 0 0 0 0 0 0 0 0 0 0 0 0 0 0
1 1 4 8 7 3 1 0 0 0 0 0 0 0 0 0 0 0 0 0 0 0 0 0 0 0 0 0 0 0 0 0 0 0 0 0 0 0 0 1 1 1 0
2 3 5 8 7 4 1 1 1 1 1 1 0 0 0 0 0 0 0 0 0 0 0 0 0 0 0 0 0 0 0 0 0 0 0 0 0 0 1 2 2 2 1
2 4 6 5 4 3 2 2 2 2 2 1 0 0 0 0 0 0 0 0 0 0 0 0 0 0 0 0 0 0 0 0 0 0 0 0 0 0 1 3 4 3 1
2 4 5 4 2 1 2 2 2 2 2 1 0 0 0 0 0 0 0 0 0 1 1 1 0 0 0 0 0 0 0 0 0 0 0 0 1 1 4 7 9 6 3
2 2 3 4 3 2 1 1 1 1 1 0 0 0 0 0 0 0 0 1 2 4 6 6 4 3 3 3 1 1 1 1 0 0 0 0 2 3 8 17 20 15 10
9 6 3 3 4 3 2 1 0 0 0 0 0 0 0 0 0 0 1 2 4 8 13 14 13 14 14 12 8 6 7 5 2 1 1 1 3 7 16 30 36 31 25
25 16 6 3 4 4 3 2 1 0 0 0 1 1 1 1 1 1 2 3 5 10 16 20 23 26 27 25 19 14 12 9 6 4 2 2 5 12 26 42 51 48 42
42 32 18 10 7 6 6 7 6 4 3 3 4 5 6 6 5 4 4 4 6 10 15 20 24 26 28 27 22 15 12 10 9 6 3 4 9 17 31 48 59 58 53
59 51 38 28 22 19 19 22 20 17 14 14 15 15 16 15 13 10 8 10 12 13 15 17 18 18 19 18 15 11 10 10 10 7 3 5 12 21 31 46 60 62 58
73 68 59 52 48 45 44 44 40 37 34 31 29 29 28 27 23 19 17 19 20 18 17 16 15 14 13 13 11 10 10 11 9 5 3 5 13 20 27 42 56 59 57
74 74 73 71 70 69 67 63 58 53 49 44 39 38 40 38 31 27 25 24 24 22 20 18 16 14 12 11 9 8 9 8 5 2 1 4 10 15 21 33 45 49 49
67 70 75 76 75 75 74 70 65 58 52 47 43 42 44 41 35 31 27 25 23 22 19 16 13 12 9 6 4 3 4 4 2 0 0 3 7 12 16 23 30 35 38
59 62 68 70 69 69 67 65 61 55 48 44 42 40 39 38 34 31 26 22 20 18 15 13 10 8 5 3 1 0 1 1 0 0 0 2 5 9 15 17 20 25 28
47 51 56 60 61 61 59 57 54 49 43 37 34 33 32 31 30 27 22 17 14 13 12 9 7 5 4 2 1 0 0 0 0 0 0 1 2 6 12 15 17 20 21
37 40 44 48 51 52 51 49 47 41 33 27 25 25 24 24 23 18 14 11 10 10 9 6 4 4 3 2 1 0 0 0 0 0 0 0 1 3 7 11 14 15 15
32 32 33 34 36 39 39 40 40 35 28 23 21 20 19 19 17 12 7 7 8 8 5 2 1 1 1 1 1 0 0 0 0 0 0 0 0 1 3 5 7 8 9
25 24 23 21 21 23 25 28 32 31 28 25 22 18 16 15 15 10 6 6 7 6 3 1 0 0 0 0 0 0 0 0 0 0 0 0 0 0 1 1 2 3 3
13 13 13 11 11 12 15 19 23 26 26 23 21 19 14 12 12 10 7 7 6 3 1 0 0 0 0 0 0 0 0 0 0 0 0 0 0 0 0 0 0 0 0
4 4 4 4 5 7 9 13 17 19 19 20 22 21 17 12 11 11 10 8 6 3 1 0 0 0 0 0 0 0 0 0 0 0 0 0 0 0 0 0 0 0 0
1 0 0 1 3 6 7 10 13 14 14 19 24 23 19 14 12 11 10 8 6 4 2 0 0 0 0 0 0 0 0 0 0 0 0 0 0 0 0 0 0 0 0
Wind_Speed
10 12 18 19 19 18 17 16 16 15 15 15 14 14 14 15 15 15 15 14 14 13 13 12 12 12 12 12 13 13 13 13 13 13 13 13 12 11 11 13 12 9 13
15 15 19 19 19 19 18 17 16 16 15 15 14 14 14 14 14 14 13 13 13 12 12 11 11 11 11 11 11 11 11 11 11 11 11 10 10 9 9 12 12 8 12
17 14 17 19 19 19 18 17 16 16 15 15 14 14 13 13 13 12 12 12 12 11 11 11 10 10 10 10 9 9 9 9 9 9 9 4 5 9 11 13 13 12 11
18 12 15 21 20 19 18 17 16 16 15 15 14 14 13 12 12 12 11 11 11 11 10 10 9 9 9 8 8 7 7 6 6 6 4 4 4 9 12 13 12 12 11
15 11 15 22 20 19 18 17 16 16 15 15 14 14 13 12 12 11 11 10 10 10 9 9 8 8 8 7 6 6 5 5 4 3 2 4 4 9 12 13 13 12 11
13 10 15 21 20 19 18 17 16 16 15 15 14 14 13 12 12 11 11 10 9 9 9 8 8 8 7 7 6 6 5 5 4 2 3 4 5 11 14 14 14 13 12
13 10 14 21 20 19 18 17 16 16 15 15 14 14 13 12 12 11 11 10 10 9 9 9 9 9 8 8 8 7 7 7 4 3 3 3 6 13 15 15 15 15 13
16 12 12 20 20 19 18 17 17 16 16 15 14 14 13 13 12 12 11 11 11 11 10 10 10 10 10 10 9 9 9 9 6 4 3 4 9 14 17 16 16 16 15
15 12 9 11 15 18 18 18 17 16 16 15 15 14 14 13 12 12 12 12 12 12 12 12 12 12 12 12 11 11 11 11 6 4 5 4 9 15 18 17 17 16 16
12 12 10 9 9 9 11 17 18 17 17 16 15 15 14 13 13 13 11 12 13 14 14 14 14 14 14 13 13 13 13 11 6 6 4 5 10 15 18 18 18 17 17
12 10 10 10 9 8 8 13 14 16 16 15 13 15 13 7 7 8 12 14 16 16 16 16 16 15 15 14 15 15 13 5 5 5 5 10 12 15 18 18 18 18 17
14 13 11 11 11 9 9 7 6 7 7 7 6 7 6 5 6 8 11 17 18 18 18 17 17 15 12 6 10 13 6 7 6 6 7 13 14 15 17 18 18 18 18
15 14 13 12 11 10 7 6 5 4 4 6 7 7 5 5 4 6 4 7 9 13 9 10 11 7 7 6 5 6 7 7 5 6 8 14 14 16 18 19 19 19 18
14 14 13 13 11 11 8 7 7 5 5 6 8 8 6 4 5 5 4 4 4 3 4 5 4 6 7 8 8 8 8 6 6 5 7 15 15 16 18 20 20 20 19
13 14 14 13 12 11 8 7 7 7 7 7 6 7 8 6 5 5 3 2 3 2 3 4 5 6 6 7 7 8 8 8 8 8 6 13 16 16 18 20 21 20 20
11 12 13 13 12 10 8 6 5 5 5 5 5 7 9 6 5 4 3 2 2 2 3 4 5 5 5 5 6 7 7 7 8 8 7 9 13 14 17 18 19 20 20
8 7 8 10 9 9 8 6 4 4 4 4 4 5 6 6 5 4 3 2 2 2 3 2 3 3 3 3 5 5 5 6 6 7 7 5 6 12 17 18 18 18 19
4 6 7 8 8 7 5 4 3 3 3 3 2 3 5 6 5 4 3 2 2 1 1 1 1 2 2 2 3 4 4 4 6 7 6 6 5 6 11 17 18 19 20
1 2 4 4 5 5 5 3 2 2 2 2 2 3 4 5 5 4 2 2 1 1 0 1 0 1 2 3 3 4 4 4 5 7 7 7 6 6 6 10 17 19 21
2 1 1 2 4 3 2 1 1 1 0 1 2 3 4 4 4 4 3 2 2 1 0 0 1 1 2 2 4 4 4 5 4 5 7 6 5 7 7 8 7 10 17
4 2 2 3 4 3 2 1 1 1 1 1 2 3 4 4 4 3 2 2 2 2 1 1 1 1 1 1 1 3 4 5 5 5 5 4 5 5 5 6 5 5 5
5 4 3 4 2 2 2 2 1 1 1 1 2 2 3 4 4 4 3 3 3 2 1 1 1 0 1 0 1 1 4 5 4 3 2 3 4 3 4 5 5 5 4
7 6 5 4 5 4 2 1 2 2 1 1 1 1 2 3 4 4 5 4 4 3 2 2 2 2 1 1 1 2 1 3 4 4 3 2 2 2 3 4 5 6 6
7 7 6 4 5 4 3 3 2 1 1 2 2 2 2 2 2 4 5 4 4 4 4 3 3 3 3 2 1 2 3 3 2 4 4 3 4 3 4 4 5 5 5
8 8 8 8 8 7 6 6 4 2 2 2 2 2 2 2 3 3 3 3 4 3 4 4 3 3 3 3 3 2 2 2 3 3 5 4 4 4 3 4 4 4 4
7 8 7 8 8 7 7 6 5 5 4 3 3 2 2 2 3 3 2 3 3 3 4 4 4 4 4 4 3 3 3 3 3 3 4 4 5 4 4 3 3 4 4
Wind_Direction
156 160 154 149 146 145 143 140 136 132 129 126 123 120 118 117 117 119 121 123 124 124 123 121 120 118 115 114 114 114 115 116 116 117 118 117 115 116 122 123 118 114 115
152 157 153 149 148 148 147 144 142 139 137 134 131 129 127 125 124 124 126 128 129 129 128 126 127 125 123 122 120 120 120 120 121 122 121 119 115 110 125 132 124 126 123
147 153 151 150 150 150 149 148 148 145 143 140 138 137 135 134 133 132 133 134 134 133 133 132 133 133 131 130 128 127 127 127 129 131 130 126 125 119 120 130 130 130 128
146 150 151 151 152 152 152 152 152 150 148 146 145 144 143 141 141 140 140 141 141 142 142 142 142 142 141 141 141 140 141 143 145 150 149 163 163 144 137 136 138 138 137
145 149 155 153 154 155 155 156 156 155 153 152 151 151 150 150 149 148 149 150 151 152 154 155 155 155 156 158 161 164 166 171 180 187 193 196 190 168 159 151 149 149 148
146 150 157 155 156 157 158 159 160 159 158 158 158 158 159 158 158 158 160 162 164 166 168 170 171 173 177 181 187 197 204 210 213 224 242 221 189 185 175 165 161 160 160
148 154 159 158 160 161 162 163 164 164 164 165 166 167 168 168 169 170 172 174 178 180 183 185 188 190 194 200 208 218 228 236 229 225 240 228 193 191 185 178 171 169 170
153 156 160 162 164 165 167 168 169 170 171 173 174 176 177 179 182 183 186 188 191 194 197 200 202 204 206 210 215 223 235 246 251 242 231 218 206 200 194 188 182 178 178
154 158 162 166 168 170 172 174 175 177 179 181 183 185 187 191 195 197 200 202 204 206 208 210 212 214 216 218 221 227 235 242 249 256 261 242 217 208 202 196 190 187 186
157 163 165 166 168 171 176 181 182 184 186 188 191 194 197 201 206 210 213 217 218 218 219 220 220 222 223 223 226 230 236 242 242 245 251 251 239 218 210 203 198 195 193
163 171 171 171 173 174 178 189 188 191 194 195 199 203 204 209 213 220 225 225 228 228 227 227 227 228 229 231 233 235 238 232 228 240 244 249 242 225 217 211 207 202 200
172 178 179 179 179 178 187 187 190 196 198 199 199 207 205 204 215 225 232 235 236 234 232 231 231 232 232 231 235 237 233 228 227 236 241 244 241 228 221 216 215 209 206
175 179 182 184 181 183 191 180 189 199 198 205 208 210 212 213 222 233 234 242 241 238 234 234 233 229 226 224 228 229 232 231 230 233 240 242 241 233 223 218 219 215 212
177 185 183 184 183 189 190 186 188 197 199 205 211 209 208 214 220 225 228 228 225 224 220 224 223 226 227 228 230 233 236 232 230 231 240 244 244 238 227 219 219 217 215
183 188 184 184 184 187 186 188 189 198 202 206 206 207 205 208 216 220 221 215 213 209 215 223 229 233 233 234 236 237 236 234 233 227 236 242 239 237 231 225 222 220 218
182 191 186 186 183 179 181 184 184 191 194 194 200 202 200 202 205 203 202 203 206 204 212 216 223 228 232 230 238 239 236 232 232 230 231 239 235 230 226 225 224 227 225
176 178 187 188 179 173 172 175 173 171 175 182 188 192 188 184 186 184 185 202 218 220 225 226 237 235 238 239 245 247 241 233 233 234 234 231 231 230 227 225 226 229 230
174 177 179 187 169 163 159 164 161 161 158 157 162 170 172 174 170 165 168 195 212 209 215 235 251 268 267 256 254 256 251 243 241 241 238 229 224 231 230 231 231 233 235
208 179 181 183 160 163 157 165 155 138 140 150 156 168 165 163 158 152 159 172 153 132 146 254 259 238 270 279 272 261 255 250 247 249 242 236 227 228 227 235 234 232 236
9 69 151 158 139 154 138 124 94 69 83 158 173 173 157 155 152 146 148 150 136 126 135 239 248 253 247 263 285 287 271 259 248 245 247 245 232 231 231 234 233 237 239
28 16 186 148 152 146 133 168 146 163 233 238 214 181 168 163 156 152 154 156 151 161 201 214 216 271 277 300 335 312 295 272 258 248 245 244 242 239 232 231 225 228 238
61 8 53 47 64 91 153 176 152 159 189 219 231 206 189 176 172 168 173 187 181 174 197 207 174 186 279 46 137 322 325 328 320 288 270 248 251 244 242 242 231 225 233
51 38 56 40 37 32 32 76 63 47 26 344 285 245 229 199 188 186 195 186 184 179 195 210 185 175 220 268 175 178 240 283 311 311 304 293 291 266 253 246 239 233 228
50 47 49 51 50 43 47 56 71 100 237 247 248 243 251 234 217 210 199 189 190 190 196 209 188 185 181 232 262 210 205 210 256 305 313 314 308 289 277 272 260 246 231
47 47 42 43 41 36 36 33 28 355 301 299 306 307 277 272 249 225 205 191 196 202 205 207 201 201 191 200 213 223 235 237 222 236 284 304 312 294 287 270 260 251 236
50 48 45 45 34 26 31 31 25 0 347 344 330 321 306 295 286 269 235 212 206 207 211 211 211 212 212 214 215 208 206 220 226 227 259 281 287 286 289 275 262 252 243